Location: Unspecified
(0.0000°N, 0.0000°E)
Time: 11:28:17
(UTC+00:00)

Transit 2A - Pass Details

Date: 21 November 2019
Orbit: 602 x 957 km, 66.7° (Epoch: 07 December)

Event Time Altitude Azimuth Distance (km) Brightness Sun altitude
Rises 23:05:34 0° 301° (WNW) 3,032 - -67.7°
Reaches altitude 10° 23:09:16 10° 271° (W) 2,201 - -68.1°
Maximum altitude 23:11:16 12° 247° (WSW) 2,090 - -68.3°
Drops below altitude 10° 23:13:22 10° 223° (SW) 2,299 - -68.5°
Sets 23:17:27 0° 194° (SSW) 3,327 - -68.8°
